When you browse on this site, cookies collect data to enhance your experience and personalize the content and advertising you see.
Visit our Privacy Policy to learn more. By continuing to use the site, you agree to this use of cookies and data.
  • In Austria
  • List of Countries
  • For 7 days
  • Water Temperature
  • Weather Map
  • News
  • Weather Widgets
  • user-avatar
    Login

    Hourly Weather Rjukan

    Today, 15 September, Sunday

    Time Temperature Precipitation Wind Pressure Humidity
    00:00 +3°C° 2.2 mm 6 mps 665 mmHg 96%
    01:00 +3°C° 2.2 mm 6 mps 665 mmHg 96%
    02:00 +2°C° 0.6 mm 7 mps 664 mmHg 94%
    03:00 +1°C° 0.6 mm 8 mps 663 mmHg 93%
    04:00 0°C° 0.6 mm 8 mps 663 mmHg 92%
    05:00 -1°C° 0.2 mm 9 mps 662 mmHg 90%
    06:00 -2°C° 0.2 mm 10 mps 662 mmHg 89%
    07:00 -2°C° 0.2 mm 11 mps 662 mmHg 88%
    08:00 -2°C° 0.2 mm 12 mps 661 mmHg 85%
    09:00 -1°C° 0.2 mm 13 mps 661 mmHg 82%
    10:00 0°C° 0.2 mm 13 mps 661 mmHg 79%
    11:00 0°C° 0.4 mm 14 mps 661 mmHg 80%
    12:00 0°C° 0.4 mm 14 mps 661 mmHg 81%
    13:00 +1°C° 0.4 mm 15 mps 661 mmHg 83%
    14:00 +1°C° 0.3 mm 15 mps 661 mmHg 82%
    15:00 +1°C° 0.3 mm 15 mps 661 mmHg 81%
    16:00 0°C° 0.3 mm 15 mps 662 mmHg 80%
    17:00 0°C° 0.1 mm 15 mps 662 mmHg 81%
    18:00 0°C° 0.1 mm 14 mps 662 mmHg 82%
    19:00 -1°C° 0.1 mm 14 mps 663 mmHg 83%
    20:00 -1°C° 0 mm 14 mps 663 mmHg 80%
    21:00 -2°C° 0 mm 13 mps 664 mmHg 78%
    22:00 -2°C° 0 mm 13 mps 664 mmHg 76%
    23:00 -3°C° 0 mm 11 mps 665 mmHg 77%

    Tomorrow, 16 September, Monday

    Time Temperature Precipitation Wind Pressure Humidity
    00:00 -4°C° 0 mm 10 mps 665 mmHg 77%
    01:00 -4°C° 0 mm 8 mps 665 mmHg 78%
    02:00 -4°C° 0 mm 7 mps 665 mmHg 80%
    03:00 -4°C° 0 mm 6 mps 665 mmHg 82%
    04:00 -5°C° 0 mm 5 mps 665 mmHg 84%
    05:00 -5°C° 0 mm 5 mps 665 mmHg 83%
    06:00 -3°C° 0 mm 4 mps 666 mmHg 83%
    07:00 -3°C° 0 mm 4 mps 666 mmHg 82%
    08:00 -1°C° 0 mm 5 mps 666 mmHg 72%
    09:00 -1°C° 0 mm 6 mps 667 mmHg 62%
    10:00 +1°C° 0 mm 8 mps 667 mmHg 52%
    11:00 +3°C° 0 mm 7 mps 667 mmHg 52%
    12:00 +3°C° 0 mm 7 mps 667 mmHg 51%
    13:00 +4°C° 0 mm 7 mps 667 mmHg 50%
    14:00 +4°C° 0 mm 7 mps 667 mmHg 54%
    15:00 +4°C° 0 mm 7 mps 667 mmHg 58%
    16:00 +3°C° 0 mm 7 mps 666 mmHg 62%
    17:00 +2°C° 0 mm 6 mps 666 mmHg 69%
    18:00 0°C° 0 mm 5 mps 665 mmHg 75%
    19:00 -2°C° 0 mm 4 mps 665 mmHg 82%
    20:00 -3°C° 0 mm 4 mps 664 mmHg 84%
    21:00 -4°C° 0 mm 3 mps 664 mmHg 85%
    22:00 -5°C° 0 mm 3 mps 664 mmHg 87%
    23:00 -5°C° 0 mm 3 mps 664 mmHg 87%

    Day after tomorrow, 17 September, Tuesday

    Time Temperature Precipitation Wind Pressure Humidity
    00:00 -5°C° 0 mm 3 mps 664 mmHg 86%
    01:00 -5°C° 0 mm 3 mps 664 mmHg 86%
    02:00 -5°C° 0 mm 3 mps 664 mmHg 86%
    03:00 -5°C° 0 mm 3 mps 664 mmHg 86%
    04:00 -5°C° 0 mm 4 mps 664 mmHg 86%
    05:00 -5°C° 0 mm 4 mps 664 mmHg 83%
    06:00 -4°C° 0 mm 3 mps 665 mmHg 81%
    07:00 -4°C° 0 mm 3 mps 665 mmHg 78%
    08:00 -2°C° 0 mm 4 mps 666 mmHg 69%
    09:00 -1°C° 0 mm 4 mps 667 mmHg 61%
    10:00 +1°C° 0 mm 4 mps 668 mmHg 52%
    11:00 +3°C° 0 mm 4 mps 668 mmHg 49%
    12:00 +4°C° 0 mm 4 mps 669 mmHg 46%
    13:00 +5°C° 0 mm 5 mps 669 mmHg 44%
    14:00 +5°C° 0 mm 5 mps 669 mmHg 46%
    15:00 +3°C° 0 mm 5 mps 669 mmHg 49%
    16:00 +3°C° 0 mm 5 mps 669 mmHg 52%
    17:00 +1°C° 0 mm 4 mps 669 mmHg 62%
    18:00 0°C° 0 mm 3 mps 669 mmHg 72%
    19:00 -2°C° 0 mm 3 mps 669 mmHg 81%
    20:00 -4°C° 0 mm 3 mps 669 mmHg 83%
    21:00 -4°C° 0 mm 3 mps 670 mmHg 84%
    22:00 -5°C° 0 mm 3 mps 670 mmHg 86%
    23:00 -5°C° 0 mm 3 mps 670 mmHg 86%

    18 September, Wednesday

    Time Temperature Precipitation Wind Pressure Humidity
    00:00 -5°C° 0 mm 3 mps 671 mmHg 86%
    01:00 -5°C° 0 mm 3 mps 671 mmHg 87%
    02:00 -5°C° 0 mm 3 mps 671 mmHg 87%
    03:00 -5°C° 0 mm 3 mps 671 mmHg 87%
    04:00 -5°C° 0 mm 3 mps 671 mmHg 87%
    05:00 -4°C° 0 mm 3 mps 672 mmHg 85%
    06:00 -4°C° 0 mm 3 mps 672 mmHg 83%
    07:00 -4°C° 0 mm 3 mps 672 mmHg 81%
    08:00 -1°C° 0 mm 3 mps 673 mmHg 72%
    09:00 +1°C° 0 mm 3 mps 673 mmHg 63%
    10:00 +3°C° 0 mm 3 mps 674 mmHg 53%
    11:00 +4°C° 0 mm 4 mps 674 mmHg 52%
    12:00 +5°C° 0 mm 4 mps 674 mmHg 50%
    13:00 +5°C° 0 mm 4 mps 674 mmHg 48%
    14:00 +5°C° 0 mm 4 mps 674 mmHg 51%
    15:00 +5°C° 0 mm 4 mps 674 mmHg 53%
    16:00 +4°C° 0 mm 4 mps 674 mmHg 56%
    17:00 +1°C° 0 mm 4 mps 674 mmHg 64%
    18:00 +1°C° 0 mm 3 mps 674 mmHg 73%
    19:00 -1°C° 0 mm 3 mps 674 mmHg 82%
    20:00 -2°C° 0 mm 2 mps 674 mmHg 84%
    21:00 -2°C° 0 mm 2 mps 675 mmHg 85%
    22:00 -3°C° 0 mm 2 mps 675 mmHg 87%
    23:00 -3°C° 0 mm 2 mps 675 mmHg 86%

    19 September, Thursday

    Time Temperature Precipitation Wind Pressure Humidity
    00:00 -3°C° 0 mm 2 mps 676 mmHg 86%
    01:00 -3°C° 0 mm 2 mps 676 mmHg 85%
    02:00 -3°C° 0 mm 2 mps 676 mmHg 86%
    03:00 -3°C° 0 mm 2 mps 677 mmHg 86%
    04:00 -3°C° 0 mm 2 mps 677 mmHg 86%
    05:00 -3°C° 0 mm 2 mps 678 mmHg 84%
    06:00 -3°C° 0 mm 2 mps 678 mmHg 81%
    07:00 -2°C° 0 mm 2 mps 679 mmHg 78%
    08:00 +2°C° 0 mm 1 mps 679 mmHg 68%
    09:00 +4°C° 0 mm 1 mps 680 mmHg 57%
    10:00 +4°C° 0 mm 0 mps 681 mmHg 47%
    11:00 +6°C° 0 mm 1 mps 681 mmHg 44%
    12:00 +7°C° 0 mm 1 mps 681 mmHg 41%
    13:00 +8°C° 0 mm 1 mps 682 mmHg 38%
    14:00 +8°C° 0 mm 1 mps 681 mmHg 37%
    15:00 +7°C° 0 mm 2 mps 681 mmHg 37%
    16:00 +7°C° 0 mm 2 mps 681 mmHg 36%
    17:00 +4°C° 0 mm 2 mps 680 mmHg 46%
    18:00 +2°C° 0 mm 2 mps 680 mmHg 56%
    19:00 -2°C° 0 mm 2 mps 679 mmHg 66%
    20:00 -2°C° 0 mm 2 mps 679 mmHg 66%
    21:00 -2°C° 0 mm 2 mps 679 mmHg 67%
    22:00 -2°C° 0 mm 2 mps 679 mmHg 67%
    23:00 -2°C° 0 mm 2 mps 679 mmHg 68%

    20 September, Friday

    Time Temperature Precipitation Wind Pressure Humidity
    00:00 -1°C° 0 mm 2 mps 679 mmHg 68%
    01:00 -1°C° 0 mm 2 mps 679 mmHg 69%
    02:00 -1°C° 0 mm 3 mps 678 mmHg 72%
    03:00 -1°C° 0 mm 3 mps 678 mmHg 74%
    04:00 -1°C° 0 mm 3 mps 677 mmHg 77%
    05:00 0°C° 0 mm 3 mps 677 mmHg 77%
    06:00 0°C° 0 mm 3 mps 677 mmHg 78%
    07:00 +1°C° 0 mm 3 mps 677 mmHg 79%
    08:00 +3°C° 0 mm 4 mps 677 mmHg 75%
    09:00 +4°C° 0 mm 4 mps 677 mmHg 72%
    10:00 +6°C° 0 mm 5 mps 677 mmHg 69%
    11:00 +7°C° 0 mm 5 mps 677 mmHg 66%
    12:00 +8°C° 0 mm 6 mps 677 mmHg 64%
    13:00 +10°C° 0 mm 7 mps 677 mmHg 62%
    14:00 +9°C° 0 mm 6 mps 676 mmHg 64%
    15:00 +9°C° 0 mm 6 mps 675 mmHg 66%
    16:00 +9°C° 0 mm 6 mps 675 mmHg 68%
    17:00 +7°C° 0 mm 5 mps 674 mmHg 75%
    18:00 +5°C° 0 mm 4 mps 673 mmHg 83%
    19:00 +3°C° 0 mm 3 mps 673 mmHg 90%
    20:00 +3°C° 0 mm 3 mps 673 mmHg 91%
    21:00 +3°C° 0 mm 3 mps 673 mmHg 92%
    22:00 +3°C° 0 mm 3 mps 673 mmHg 93%
    23:00 +3°C° 0 mm 3 mps 672 mmHg 94%
    Show more